Regional Weather Roundup
Issued by NWS

Home | Current Version | Previous Version | Text Only | Print | Product List | Glossary Off
Versions: 1 2 3 4 5 6 7 8 9 10 11 12 13 14 15 16 17 18 19 20 21 22 23 24 25 26 27 28 29 30 31 32 33 34 35 36 37 38 39 40 41 42 43 44 45 46 47 48 49 50

000
ASUS45 KBOI 220110
RWRID

IDAHO REGIONAL WEATHER ROUNDUP
NATIONAL WEATHER SERVICE BOISE ID
700 PM MDT THU MAY 21 2015

NOTE: "FAIR" INDICATES FEW OR NO CLOUDS BELOW 12000 FEET
WITH NO SIGNIFICANT WEATHER AND/OR OBSTRUCTIONS TO VISIBILITY

IDZ012-014-220200-
SOUTHWEST IDAHO


CITY           SKY/WX    TMP DP  RH WIND       PRES   REMARKS
BOISE          PTSUNNY   71  45  39 SE9       29.80S
CALDWELL       PTSUNNY   70  46  43 N8        29.81S
MOUNTAIN HOME  CLOUDY    68  40  36 SW10      29.82R
$$

IDZ016-017-220200-
SOUTHCENTRAL IDAHO


CITY           SKY/WX    TMP DP  RH WIND       PRES   REMARKS
BURLEY         PTSUNNY   59  44  57 W12       29.85F
JEROME         CLOUDY    61  42  49 S5        29.86F
TWIN FALLS     CLOUDY    59  45  59 S12       29.83F
$$

IDZ019>023-220200-
SOUTHEAST IDAHO


CITY           SKY/WX    TMP DP  RH WIND       PRES   REMARKS
IDAHO FALLS    PTSUNNY   66  43  43 W6        29.88F
POCATELLO      MOSUNNY   66  41  40 W5        29.88R THUNDER
REXBURG        MOSUNNY   64  38  38 S5        29.89F
$$

IDZ006-010-011-018-031-032-220200-
CENTRAL IDAHO MOUNTAINS


CITY           SKY/WX    TMP DP  RH WIND       PRES   REMARKS
MCCALL         CLOUDY    55  45  68 SE7       29.92S
STANLEY          N/A     50  41  71 NW5       29.96R
SALMON         MOSUNNY   63  45  51 CALM      29.86F
CHALLIS        MOSUNNY   62  40  44 VRB6      29.89F
$$

IDZ002-004-006-007-026-220200-
NORTHERN IDAHO


CITY           SKY/WX    TMP DP  RH WIND       PRES   REMARKS
LEWISTON       PTSUNNY   75  49  39 CALM      29.77F
LOWELL           N/A     70  49  47 CALM      29.79R
COEUR D`ALENE  MOSUNNY   81  37  21 CALM      29.76F
MULLAN PASS    CLOUDY    56  39  53 CALM      29.95F
$$



USA.gov is the U.S. government's official web portal to all federal, state and local government web resources and services.